Location: Le Haut Chêne
(48.0167°N, 0.8333°W)
Time: 22:23:34
(UTC+00:00)

Daily predictions for brighter satellites

Satellite Brightness Start Highest point End
(mag) Time Altitude Azimuth Time Altitude Azimuth Time Altitude Azimuth
Cosmos 1733 Rocket 3.7 17:10:23 10° N 17:14:23 33° ENE 17:18:23 10° SE
Cosmos 540 Rocket 3.9 17:12:12 10° S 17:17:01 43° ESE 17:21:52 10° NE
Cosmos 2322 3.8 17:13:51 10° SSW 17:19:34 89° NW 17:25:21 10° NNE
USA 215 3.6 17:17:02 10° NE 17:23:27 59° NNW 17:29:49 10° W
Cosmos 2228 Rocket 3.8 17:20:55 10° SSE 17:25:01 35° E 17:29:09 10° NNE
Cosmos 2279 Rocket 4.0 17:20:27 10° N 17:26:37 61° ENE 17:32:42 10° SSE
Meteor 1-12 Rocket 4.4 17:21:37 10° NNW 17:27:22 87° W 17:33:11 10° S
NOSS 8 (A) 4.3 17:25:20 10° NNW 17:28:11 49° NE 17:31:28 10° ESE
Cosmos 1898 Rocket 4.0 17:24:04 10° N 17:29:02 39° ENE 17:34:00 10° SE
Aureole 1 Rocket 4.5 17:25:31 10° NNW 17:33:08 57° ENE 17:39:58 10° SE
PSLV R/B 3.3 17:29:17 10° SSE 17:33:20 76° ENE 17:37:25 10° N
Okean 1-7 4.0 17:35:15 10° SE 17:38:45 25° E 17:42:17 10° NNE
Cosmos 1980 3.9 17:33:25 10° S 17:38:50 50° ESE 17:44:16 10° NE
SL-16 R/B 3.8 17:35:51 10° SE 17:38:53 15° E 17:40:55 12° ENE
SMAP 3.6 17:37:49 10° S 17:42:26 64° WSW 17:47:05 10° NNW
Cosmos 1953 2.1 17:39:36 10° N 17:43:18 61° ENE 17:46:59 10° SSE
NOSS 0 Rocket 3.9 17:42:32 10° SSW 17:48:40 79° ESE 17:54:50 10° NNE
SKYMED 2 4.0 17:45:45 10° NNE 17:49:52 41° E 17:53:58 10° S
Cosmos 1818 4.1 17:46:20 10° NNW 17:51:26 38° NE 17:56:19 11° ESE
ATLAS 2AS CENTAUR R/B 3.0 17:46:25 10° NW 17:52:55 43° NE 17:59:04 11° ESE
NOSS 8 (H) 4.4 17:49:33 10° SW 17:53:35 85° SE 17:55:54 18° NE
Cosmos 2369 Rocket 3.3 17:50:10 10° N 17:54:30 22° NE 17:56:55 17° ENE
SL-16 R/B 4.5 17:49:46 10° N 17:54:45 26° WNW 17:59:44 10° WSW
COSMOS 2428 3.2 17:50:24 10° SW 17:56:01 60° WNW 18:01:40 10° NNE
ACS3 Solar Sail 2.1 17:50:11 10° SE 17:56:18 50° ENE 18:02:26 10° N
IGS 5A 3.6 17:53:08 10° S 17:57:08 72° WSW 18:01:10 10° NNW
Cosmos 2333 Rocket 4.3 17:53:57 10° W 17:57:59 20° NW 18:02:02 10° N
Cosmos 372 Rocket 3.9 17:54:08 10° NNW 17:59:11 64° ENE 18:04:14 10° SSE
Cosmos 1174 4.2 17:56:09 10° NW 17:59:47 65° WSW 18:04:12 10° SSE
DNEPR-1 R/B 3.7 17:59:00 10° NW 18:03:53 84° SW 18:08:09 10° SE
BREEZE-M DEB (TANK) 3.6 17:55:08 10° WSW 18:05:07 83° NNW 18:07:22 24° ENE
Cosmos 2322 Rocket 4.5 18:04:03 10° WNW 18:07:21 16° NW 18:10:40 10° N
Cosmos 1908 Rocket 4.0 18:03:26 10° N 18:07:29 37° ENE 18:11:30 10° SE
Cosmos 2360 Rocket 4.4 18:06:31 10° WNW 18:10:12 17° NW 18:13:53 10° N
Meteor 1-31 Rocket 2.6 18:09:04 10° SSE 18:12:33 55° ENE 18:16:05 10° N
Okean 3 3.7 18:08:48 10° SSW 18:12:52 69° W 18:17:00 10° N
Cosmos 1707 Rocket 3.7 18:09:14 10° SSW 18:13:39 77° W 18:18:07 10° N
EO 1 Delta rocket 3.8 18:09:06 10° NNE 18:13:48 59° E 18:18:23 10° S
Okean 2 3.4 18:12:43 10° SSW 18:16:39 78° W 18:20:39 10° N
Cosmos 2297 4.4 18:12:41 10° NNW 18:17:52 34° NE 18:20:17 24° E
Cosmos 1937 Rocket 3.3 18:14:04 10° NNW 18:19:13 71° ENE 18:24:22 10° SSE
CZ-2C R/B 3.2 18:22:18 32° NE 18:22:18 32° NE 18:24:37 10° N
Cosmos 2026 Rocket 4.4 18:16:36 10° SSE 18:22:27 40° E 18:28:19 10° NNE
Cosmos 858 Rocket 4.5 18:18:36 10° NNW 18:23:46 60° ENE 18:28:55 10° SE
BREEZE-M DEB (TANK) 3.8 18:10:09 10° WSW 18:26:22 74° SSE 18:28:56 30° E
Cosmos 1943 Rocket 3.0 18:22:29 10° NW 18:27:59 53° WSW 18:33:25 10° S
RESURS DK-1 3.4 18:24:52 10° NW 18:28:44 46° WSW 18:32:35 10° S
Cosmos 1428 Rocket 4.5 18:23:08 10° S 18:29:12 60° E 18:35:15 10° NNE
YAOGAN 3 4.4 18:26:24 10° SSE 18:30:35 61° ENE 18:34:48 10° N
Cosmos 1862 Rocket 4.2 18:27:19 10° SSW 18:31:37 56° WNW 18:35:58 10° N
Cosmos 2237 Rocket 2.4 18:27:14 10° SW 18:32:55 72° WNW 18:37:58 14° NNE
BlueWalker 3 1.9 18:29:49 10° WNW 18:33:26 56° NNE 18:33:53 51° NE
NOAA 15 4.5 18:30:08 10° SSE 18:35:22 83° ENE 18:40:38 10° NNW
COSMO-SKYMED 1 2.9 18:33:43 10° N 18:38:03 66° WNW 18:42:21 10° SSW
CZ-4B R/B 3.7 18:34:47 10° S 18:38:24 73° WSW 18:41:57 10° NNW
ISS -3.9 18:35:25 10° WSW 18:38:47 78° NNW 18:39:01 72° NNE
NOAA 6 4.1 18:35:13 10° SSE 18:40:19 80° WSW 18:45:29 10° NNW
USA 306 3.8 18:39:45 10° NW 18:40:49 21° NNW 18:40:49 21° NNW
Cosmos 2278 Rocket 4.0 18:37:12 10° NW 18:42:12 33° WSW 18:47:10 10° SSW
Cosmos 2344 3.9 18:35:52 10° WSW 18:43:11 56° NW 18:48:48 18° NE
Cosmos 1782 Rocket 4.5 18:39:10 10° N 18:41:42 30° NNE 18:41:42 30° NNE
Cosmos 2219 Rocket 4.5 18:41:43 10° WNW 18:45:14 17° NW 18:48:46 10° N
YAOGAN 1 2.7 18:44:45 10° S 18:49:00 71° WSW 18:53:17 10° NNW
CZ-4C R/B 1.8 18:46:29 10° SW 18:50:54 80° NW 18:53:04 36° NE
YAOGAN 11 3.9 18:51:30 59° NE 18:52:06 68° ESE 18:56:22 10° S
Nadezhda 4 Rocket 4.1 18:46:39 10° SSW 18:52:44 73° W 18:58:55 10° N
ATLAS 5 CENTAUR R/B 1.8 18:52:30 10° SSW 18:54:38 40° SSW 18:54:38 40° SSW
Cosmos 2195 Rocket 4.3 18:51:05 10° S 18:57:17 82° E 19:03:27 10° N
Meteor 1-24 Rocket 4.0 18:51:43 10° SSE 18:57:22 48° E 18:58:09 46° ENE
SPOT 1/Viking Rocket 3.4 18:55:07 10° SSE 19:00:17 88° W 19:05:28 10° NNW
Cosmos 1703 Rocket 3.5 18:55:53 10° S 19:00:21 85° W 19:02:12 35° N
Resurs 1-3 3.6 19:00:28 10° S 19:04:47 79° WSW 19:09:08 10° NNW
USA 215 4.0 19:03:32 31° NE 19:05:50 41° N 19:11:51 10° WNW
Meteor 2-5 Rocket 3.8 19:02:21 10° S 19:07:38 55° ESE 19:07:38 55° ESE
Cosmos 1703 3.9 19:07:15 10° SSW 19:10:33 48° W 19:10:33 48° W
Cosmos 841 Rocket 4.1 19:06:51 10° SW 19:12:00 56° WNW 19:15:03 24° N
Cosmos 1656 Rocket 3.5 19:07:06 10° NNW 19:12:37 86° WSW 19:14:50 38° SSE
SL-16 R/B 2.1 19:16:27 10° SSW 19:22:07 88° ESE 19:22:50 70° NNE
Cosmos 1553 Rocket 3.9 19:18:15 10° N 19:23:51 64° NE 19:23:51 64° NE
ADEOS 3.7 19:29:31 64° N 19:29:31 64° N 19:33:55 10° NNW
Resurs 01 Rocket 4.2 19:34:52 11° N 19:34:52 11° N 19:35:00 10° N
Cosmos 1818 4.4 19:29:54 10° NW 19:35:08 48° WSW 19:37:01 34° S
Cosmos 1092 Rocket 4.3 19:32:39 10° SSW 19:38:46 64° WNW 19:44:59 10° N
Cosmos 2369 Rocket 2.2 19:33:34 10° NNW 19:38:45 75° WNW 19:38:45 75° WNW
ACS3 Solar Sail 3.5 19:34:21 10° SSW 19:40:03 33° W 19:45:47 10° NNW
ATLAS 2AS CENTAUR R/B 3.1 19:37:26 10° NW 19:44:03 57° WSW 19:46:35 36° S
Cosmos 839 Rocket 4.1 19:46:47 10° SW 19:52:34 71° SW 19:52:34 71° SW
Cosmos 2297 4.4 19:56:43 10° NW 20:02:15 49° WSW 20:02:17 49° WSW
Cosmos 2237 Rocket 4.5 20:14:16 10° W 20:18:02 18° NW 20:19:49 16° NNW
CZ-4C R/B 4.3 20:36:05 10° WNW 20:38:08 20° NW 20:38:08 20° NW
